Flag for U.S.A. Weather past 2 weeks in Kodiak, Alaska, U.S.A.

41 °F

Light rain. Mostly cloudy.

Feels Like: 35 °F
Forecast: 35 / 41 °F
Wind: 9 mph from Southeast

Location: Kodiak Weather Reporting Station

Current Time: Nov 28, 2015 at 2:33:20 AM

Latest Report: Nov 28, 2015 at 1:53 AM

Visibility: 10 mi

Pressure: 29.26 "Hg

Humidity: 89%

Dew point: 38 °F

Location of KodiakLocation

Historic Weather in Kodiak — Graph


Kodiak temperature yesterday

Maximum temperature yesterday: 45 °F (at 12:53 AM)
Minimum temperature yesterday: 38 °F (at 9:53 AM)
Average temperature yesterday: 42 °F

Past Weeks' High & Low Weather Summary

High47 °F (Nov 20, 8:53 PM)100% (Nov 19, 2:53 AM)30.34 "Hg (Nov 19, 2:53 AM)
Low20 °F (Nov 15, 12:53 AM)36% (Nov 21, 7:53 PM)29.01 "Hg (Nov 27, 8:53 AM)
Average35 °F73%29.70 "Hg
* Reported Nov 13 12:53 AM — Nov 28 12:53 AM, Kodiak, Weather by CustomWeather, © 2015

Note: Actual official high and low records may vary slightly from our data, if they occured in-between our weather recording intervals... More about our weather records


Kodiak weather history for previous 24 hours

Time TempWeatherWind HumidityBarometerVisibility
12:53 AM
Sat, Nov 28
42 °FLight rain. Overcast.8 mph89%29.24 "Hg9 mi
11:53 PM
Fri, Nov 27
42 °FLight rain. Fog.9 mph89%29.24 "Hg5 mi
10:53 PM42 °FMostly cloudy.10 mph85%29.23 "Hg8 mi
9:53 PM41 °FLight rain. Fog.7 mph89%29.23 "Hg6 mi
8:53 PM41 °FLight rain. Fog.7 mph89%29.22 "Hg6 mi
7:53 PM42 °FLight rain. Overcast.No wind85%29.21 "Hg10 mi
6:53 PM41 °FLight rain. Fog.8 mph89%29.21 "Hg5 mi
5:53 PM40 °FMostly cloudy.9 mph89%29.20 "Hg10 mi
5:00 PM40 °FLight rain. Fog.8 mph89%29.19 "Hg5 mi
3:53 PM42 °FFog.9 mph85%29.18 "Hg4 mi
2:53 PM43 °FLight rain. More clouds than sun.16 mph82%29.17 "Hg4 mi
1:53 PM43 °FLight rain. More clouds than sun.14 mph82%29.15 "Hg9 mi
12:53 PM43 °FLight rain. More clouds than sun.14 mph82%29.13 "Hg10 mi
11:53 AM41 °FCloudy.3 mph82%29.11 "Hg10 mi
10:53 AM39 °FLight rain. Cloudy.No wind93%29.07 "Hg9 mi
9:53 AM38 °FLight rain. More clouds than sun.5 mph97%29.03 "Hg10 mi
8:53 AM40 °FLight rain. Mostly cloudy.6 mph93%29.01 "Hg8 mi
7:53 AM40 °FRain. Mostly cloudy.3 mph97%29.04 "Hg7 mi
6:53 AM40 °FLight rain. Mostly cloudy.13 mph93%29.06 "Hg8 mi
5:53 AM41 °FLight rain. Mostly cloudy.18 mph86%29.08 "Hg10 mi
4:53 AM43 °FLow clouds.13 mph93%29.07 "Hg9 mi
3:53 AM44 °FLight rain. Fog.15 mph96%29.03 "Hg6 mi
2:53 AM45 °FLight rain. Fog.26 mph97%29.02 "Hg2 mi
Weather by CustomWeather, © 2015

See weather overviewHow to use our weather pages